| time (UTC) | temp F | wind direction | speed MPH | gust MPH | rain 1hr in | rain 24hr in | rain mn in | humidity % | barometer mb |
| 20260504172814 | 93 | 128 | 2.0 | 6.0 | 0.00 | 0.00 | 0.00 | 48 | 1017.1 |
| 20260504172311 | 92 | 227 | 5.0 | 5.0 | 0.00 | 0.00 | 0.00 | 47 | 1017.4 |
| 20260504171807 | 92 | 245 | 6.0 | 9.0 | 0.00 | 0.00 | 0.00 | 47 | 1017.1 |
| 20260504171304 | 93 | 229 | 4.0 | 8.0 | 0.00 | 0.00 | 0.00 | 49 | 1017.3 |
| 20260504170801 | 93 | 216 | 3.0 | 9.0 | 0.00 | 0.00 | 0.00 | 48 | 1017.3 |
| 20260504170258 | 92 | 66 | 3.0 | 9.0 | 0.00 | 0.00 | 0.00 | 49 | 1017.3 |
| 20260504160216 | 92 | 223 | 3.0 | 11.0 | 0.00 | 0.00 | 0.00 | 56 | 1017.6 |
| 20260504151144 | 89 | 143 | 9.0 | 15.0 | 0.00 | 0.00 | 0.00 | 59 | 1017.9 |
| 20260504150641 | 90 | 218 | 5.0 | 10.0 | 0.00 | 0.00 | 0.00 | 56 | 1018.2 |
| 20260504150138 | 90 | 191 | 3.0 | 8.0 | 0.00 | 0.00 | 0.00 | 55 | 1018.1 |
| 20260504141107 | 88 | 123 | 1.0 | 2.0 | 0.00 | 0.00 | 0.00 | 67 | 1018.0 |
| 20260504140604 | 89 | 93 | 1.0 | 5.0 | 0.00 | 0.00 | 0.00 | 70 | 1018.0 |
| 20260504130528 | 87 | 148 | 3.0 | 3.0 | 0.00 | 0.00 | 0.00 | 70 | 1017.9 |
| 20260504110415 | 78 | 135 | 0.0 | 0.0 | 0.00 | 0.00 | 0.00 | 86 | 1018.2 |
| 20260504100332 | 71 | 135 | 0.0 | 0.0 | 0.00 | 0.00 | 0.00 | 99 | 1017.6 |
| 20260504081726 | 73 | 131 | 0.0 | 0.0 | 0.00 | 0.00 | 0.00 | 94 | 1017.1 |
| 20260504081222 | 73 | 133 | 1.0 | 2.0 | 0.00 | 0.00 | 0.00 | 93 | 1017.1 |
| 20260504080718 | 73 | 130 | 0.0 | 0.0 | 0.00 | 0.00 | 0.00 | 94 | 1016.8 |
| 20260504080215 | 74 | 131 | 0.0 | 0.0 | 0.00 | 0.00 | 0.00 | 93 | 1017.1 |
| 20260504070142 | 74 | 102 | 1.0 | 2.0 | 0.00 | 0.00 | 0.00 | 91 | 1017.0 |
| 20260504050531 | 75 | 119 | 0.0 | 1.0 | 0.00 | 0.00 | 0.00 | 90 | 1017.9 |
| 20260504045525 | 75 | 132 | 1.0 | 2.0 | 0.00 | 0.00 | 0.00 | 89 | 1018.0 |
| 20260504045020 | 75 | 124 | 1.0 | 3.0 | 0.00 | 0.00 | 0.00 | 89 | 1018.1 |
| 20260504044518 | 75 | 134 | 1.0 | 2.0 | 0.00 | 0.00 | 0.00 | 90 | 1018.2 |
| 20260504044015 | 75 | 99 | 0.0 | 0.0 | 0.00 | 0.00 | 0.00 | 90 | 1018.2 |
| 20260504043512 | 75 | 118 | 0.0 | 0.0 | 0.00 | 0.00 | 0.00 | 90 | 1018.3 |
| 20260504043009 | 75 | 122 | 1.0 | 1.0 | 0.00 | 0.00 | 0.00 | 89 | 1018.6 |
| 20260504042506 | 75 | 127 | 0.0 | 1.0 | 0.00 | 0.00 | 0.00 | 89 | 1018.3 |
| 20260504042003 | 75 | 138 | 1.0 | 2.0 | 0.00 | 0.00 | 0.00 | 88 | 1018.5 |
| 20260504041459 | 75 | 126 | 1.0 | 1.0 | 0.00 | 0.00 | 0.00 | 89 | 1018.4 |
| 20260504040955 | 75 | 125 | 0.0 | 0.0 | 0.00 | 0.00 | 0.00 | 88 | 1018.7 |
| 20260504040453 | 75 | 116 | 0.0 | 0.0 | 0.00 | 0.00 | 0.00 | 88 | 1018.6 |
| 20260504035948 | 74 | 123 | 0.0 | 0.0 | 0.00 | 0.00 | 0.00 | 90 | 1018.6 |
| 20260504035446 | 74 | 118 | 0.0 | 0.0 | 0.00 | 0.00 | 0.00 | 92 | 1018.7 |
| 20260504034942 | 74 | 126 | 0.0 | 0.0 | 0.00 | 0.00 | 0.00 | 92 | 1018.9 |
| 20260504034440 | 74 | 120 | 0.0 | 0.0 | 0.00 | 0.00 | 0.00 | 93 | 1018.9 |
| 20260504033937 | 74 | 121 | 0.0 | 1.0 | 0.00 | 0.00 | 0.00 | 94 | 1019.0 |
| 20260504033435 | 74 | 115 | 0.0 | 0.0 | 0.00 | 0.00 | 0.00 | 94 | 1019.0 |
| 20260504032932 | 74 | 118 | 0.0 | 0.0 | 0.00 | 0.00 | 0.00 | 94 | 1018.9 |
| 20260504032429 | 74 | 119 | 0.0 | 0.0 | 0.00 | 0.00 | 0.00 | 94 | 1018.7 |
| 20260504031925 | 75 | 130 | 0.0 | 0.0 | 0.00 | 0.00 | 0.00 | 93 | 1018.9 |
| 20260504031422 | 75 | 125 | 0.0 | 0.0 | 0.00 | 0.00 | 0.00 | 93 | 1018.9 |
| 20260504030919 | 75 | 134 | 0.0 | 0.0 | 0.00 | 0.00 | 0.00 | 92 | 1018.8 |
| 20260504030416 | 75 | 121 | 0.0 | 1.0 | 0.00 | 0.00 | 0.00 | 91 | 1019.0 |
| 20260504025912 | 75 | 119 | 0.0 | 0.0 | 0.00 | 0.00 | 0.00 | 95 | 1018.7 |
| 20260504025409 | 75 | 120 | 0.0 | 0.0 | 0.00 | 0.00 | 0.00 | 95 | 1019.0 |
| 20260504024906 | 75 | 120 | 0.0 | 0.0 | 0.00 | 0.00 | 0.00 | 94 | 1018.8 |
| 20260504024403 | 76 | 150 | 2.0 | 2.0 | 0.00 | 0.00 | 0.00 | 93 | 1018.8 |
| 20260504023900 | 76 | 125 | 0.0 | 0.0 | 0.00 | 0.00 | 0.00 | 92 | 1018.9 |
| 20260504023356 | 76 | 121 | 0.0 | 0.0 | 0.00 | 0.00 | 0.00 | 92 | 1018.6 |
| 20260504022852 | 75 | 121 | 0.0 | 0.0 | 0.00 | 0.00 | 0.00 | 94 | 1018.8 |
| 20260504022349 | 75 | 119 | 0.0 | 0.0 | 0.00 | 0.00 | 0.00 | 94 | 1018.6 |
| 20260504021845 | 75 | 122 | 0.0 | 0.0 | 0.00 | 0.00 | 0.00 | 95 | 1018.5 |
| 20260504021342 | 76 | 122 | 0.0 | 0.0 | 0.00 | 0.00 | 0.00 | 95 | 1018.4 |
| 20260504020840 | 76 | 115 | 0.0 | 0.0 | 0.00 | 0.00 | 0.00 | 96 | 1018.3 |
| 20260504020336 | 76 | 113 | 0.0 | 0.0 | 0.00 | 0.00 | 0.00 | 95 | 1018.4 |
| 20260504015832 | 76 | 121 | 0.0 | 0.0 | 0.00 | 0.00 | 0.00 | 94 | 1018.3 |
| 20260504015328 | 76 | 122 | 0.0 | 0.0 | 0.00 | 0.00 | 0.00 | 95 | 1018.4 |
| 20260504014825 | 76 | 121 | 0.0 | 0.0 | 0.00 | 0.00 | 0.00 | 94 | 1018.1 |
| 20260504014321 | 76 | 120 | 0.0 | 0.0 | 0.00 | 0.00 | 0.00 | 94 | 1018.2 |
| 20260504013819 | 77 | 121 | 0.0 | 0.0 | 0.00 | 0.00 | 0.00 | 94 | 1018.0 |
| 20260504013316 | 77 | 117 | 0.0 | 0.0 | 0.00 | 0.00 | 0.00 | 94 | 1018.2 |
| 20260504012813 | 77 | 117 | 0.0 | 0.0 | 0.00 | 0.00 | 0.00 | 93 | 1018.1 |
| 20260504012311 | 77 | 107 | 0.0 | 0.0 | 0.00 | 0.00 | 0.00 | 93 | 1018.0 |
| 20260504011808 | 77 | 119 | 0.0 | 0.0 | 0.00 | 0.00 | 0.00 | 93 | 1018.0 |
| 20260504011304 | 78 | 121 | 0.0 | 0.0 | 0.00 | 0.00 | 0.00 | 92 | 1017.9 |
| 20260504010800 | 78 | 122 | 0.0 | 0.0 | 0.00 | 0.00 | 0.00 | 92 | 1017.7 |
| 20260504010256 | 78 | 117 | 0.0 | 0.0 | 0.00 | 0.00 | 0.00 | 92 | 1017.7 |
| 20260504005753 | 78 | 118 | 0.0 | 1.0 | 0.00 | 0.00 | 0.00 | 91 | 1017.7 |
| 20260504005250 | 78 | 114 | 1.0 | 1.0 | 0.00 | 0.00 | 0.00 | 91 | 1017.8 |
| 20260504004747 | 78 | 115 | 0.0 | 0.0 | 0.00 | 0.00 | 0.00 | 90 | 1017.7 |
| 20260504004245 | 79 | 121 | 0.0 | 0.0 | 0.00 | 0.00 | 0.00 | 90 | 1017.8 |
| 20260504003741 | 79 | 123 | 0.0 | 0.0 | 0.00 | 0.00 | 0.00 | 89 | 1017.9 |
| 20260504003238 | 79 | 121 | 0.0 | 1.0 | 0.00 | 0.00 | 0.00 | 87 | 1017.9 |
| 20260504002734 | 80 | 124 | 0.0 | 0.0 | 0.00 | 0.00 | 0.00 | 86 | 1017.6 |
| 20260504002231 | 80 | 135 | 0.0 | 3.0 | 0.00 | 0.00 | 0.00 | 86 | 1017.8 |
| 20260504001729 | 80 | 128 | 0.0 | 2.0 | 0.00 | 0.00 | 0.00 | 86 | 1017.5 |
| 20260504001226 | 80 | 120 | 0.0 | 0.0 | 0.00 | 0.00 | 0.00 | 85 | 1017.7 |
| 20260504000723 | 80 | 178 | 1.0 | 1.0 | 0.00 | 0.00 | 0.00 | 84 | 1017.5 |
| 20260504000219 | 80 | 118 | 0.0 | 1.0 | 0.00 | 0.00 | 0.00 | 84 | 1017.8 |
| 20260503235718 | 81 | 125 | 0.0 | 1.0 | 0.00 | 0.00 | 0.00 | 84 | 1017.6 |
| 20260503235215 | 81 | 120 | 0.0 | 1.0 | 0.00 | 0.00 | 0.00 | 83 | 1017.3 |
| 20260503234713 | 81 | 121 | 0.0 | 0.0 | 0.00 | 0.00 | 0.00 | 85 | 1017.5 |
| 20260503234210 | 81 | 120 | 0.0 | 1.0 | 0.00 | 0.00 | 0.00 | 85 | 1017.4 |
| 20260503233707 | 81 | 115 | 0.0 | 0.0 | 0.00 | 0.00 | 0.00 | 87 | 1017.4 |
| 20260503233203 | 81 | 120 | 0.0 | 0.0 | 0.00 | 0.00 | 0.00 | 85 | 1017.3 |
| 20260503232700 | 82 | 118 | 0.0 | 0.0 | 0.00 | 0.00 | 0.00 | 85 | 1017.1 |
| 20260503232157 | 82 | 124 | 0.0 | 0.0 | 0.00 | 0.00 | 0.00 | 84 | 1017.3 |
| 20260503231655 | 82 | 129 | 0.0 | 0.0 | 0.00 | 0.00 | 0.00 | 83 | 1017.4 |
| 20260503231151 | 82 | 120 | 0.0 | 2.0 | 0.00 | 0.00 | 0.00 | 83 | 1017.3 |
| 20260503230648 | 82 | 128 | 0.0 | 3.0 | 0.00 | 0.00 | 0.00 | 82 | 1017.1 |
| 20260503230145 | 82 | 156 | 2.0 | 3.0 | 0.00 | 0.00 | 0.00 | 81 | 1017.2 |
| 20260503225642 | 82 | 127 | 0.0 | 0.0 | 0.00 | 0.00 | 0.00 | 82 | 1017.1 |
| 20260503225142 | 83 | 119 | 0.0 | 1.0 | 0.00 | 0.00 | 0.00 | 81 | 1017.0 |
| 20260503224640 | 83 | 135 | 0.0 | 2.0 | 0.00 | 0.00 | 0.00 | 81 | 1017.1 |
| 20260503224138 | 83 | 124 | 0.0 | 1.0 | 0.00 | 0.00 | 0.00 | 79 | 1017.1 |
| 20260503223636 | 83 | 133 | 0.0 | 1.0 | 0.00 | 0.00 | 0.00 | 79 | 1017.0 |
| 20260503223132 | 84 | 125 | 0.0 | 1.0 | 0.00 | 0.00 | 0.00 | 78 | 1016.7 |
| 20260503222629 | 84 | 136 | 2.0 | 6.0 | 0.00 | 0.00 | 0.00 | 76 | 1016.6 |
| 20260503222126 | 84 | 195 | 2.0 | 3.0 | 0.00 | 0.00 | 0.00 | 77 | 1016.8 |
| 20260503221625 | 84 | 127 | 0.0 | 2.0 | 0.00 | 0.00 | 0.00 | 76 | 1016.7 |
| 20260503221122 | 84 | 127 | 0.0 | 1.0 | 0.00 | 0.00 | 0.00 | 75 | 1016.8 |
| 20260503220619 | 85 | 128 | 0.0 | 1.0 | 0.00 | 0.00 | 0.00 | 74 | 1016.7 |
| 20260503220115 | 86 | 199 | 2.0 | 3.0 | 0.00 | 0.00 | 0.00 | 72 | 1016.7 |
| 20260503215612 | 86 | 119 | 0.0 | 0.0 | 0.00 | 0.00 | 0.00 | 71 | 1016.7 |
| 20260503215109 | 86 | 114 | 1.0 | 1.0 | 0.00 | 0.00 | 0.00 | 71 | 1016.6 |
| 20260503214608 | 86 | 123 | 0.0 | 2.0 | 0.00 | 0.00 | 0.00 | 73 | 1016.7 |
| 20260503214103 | 87 | 158 | 1.0 | 2.0 | 0.00 | 0.00 | 0.00 | 73 | 1016.4 |
| 20260503213603 | 87 | 127 | 0.0 | 0.0 | 0.00 | 0.00 | 0.00 | 70 | 1016.6 |
| 20260503213058 | 87 | 115 | 1.0 | 2.0 | 0.00 | 0.00 | 0.00 | 71 | 1016.4 |
| 20260503212556 | 87 | 184 | 3.0 | 3.0 | 0.00 | 0.00 | 0.00 | 70 | 1016.4 |
| 20260503212053 | 86 | 121 | 0.0 | 1.0 | 0.00 | 0.00 | 0.00 | 72 | 1016.6 |
| 20260503211550 | 86 | 125 | 0.0 | 1.0 | 0.00 | 0.00 | 0.00 | 73 | 1016.5 |
| 20260503211045 | 86 | 135 | 1.0 | 2.0 | 0.00 | 0.00 | 0.00 | 72 | 1016.5 |
| 20260503210543 | 86 | 131 | 0.0 | 1.0 | 0.00 | 0.00 | 0.00 | 71 | 1016.6 |
| 20260503210038 | 86 | 154 | 3.0 | 5.0 | 0.00 | 0.00 | 0.00 | 72 | 1016.2 |
| 20260503205535 | 86 | 127 | 0.0 | 1.0 | 0.00 | 0.00 | 0.00 | 70 | 1016.5 |
| 20260503205032 | 87 | 152 | 1.0 | 2.0 | 0.00 | 0.00 | 0.00 | 69 | 1016.5 |
| 20260503204529 | 88 | 144 | 4.0 | 7.0 | 0.00 | 0.00 | 0.00 | 68 | 1016.4 |
| 20260503204026 | 87 | 122 | 0.0 | 5.0 | 0.00 | 0.00 | 0.00 | 67 | 1016.3 |
| 20260503203523 | 88 | 136 | 1.0 | 6.0 | 0.00 | 0.00 | 0.00 | 68 | 1016.3 |
| 20260503203020 | 92 | 233 | 2.0 | 6.0 | 0.00 | 0.00 | 0.00 | 63 | 1016.5 |
| 20260503202518 | 89 | 123 | 0.0 | 1.0 | 0.00 | 0.00 | 0.00 | 64 | 1016.2 |
| 20260503202016 | 89 | 224 | 4.0 | 5.0 | 0.00 | 0.00 | 0.00 | 67 | 1016.1 |
| 20260503201514 | 92 | 234 | 3.0 | 6.0 | 0.00 | 0.00 | 0.00 | 63 | 1016.4 |
| 20260503201010 | 91 | 122 | 1.0 | 2.0 | 0.00 | 0.00 | 0.00 | 60 | 1016.5 |
| 20260503200506 | 89 | 225 | 3.0 | 5.0 | 0.00 | 0.00 | 0.00 | 63 | 1016.5 |
| 20260503200003 | 89 | 239 | 5.0 | 6.0 | 0.00 | 0.00 | 0.00 | 64 | 1016.7 |
| 20260503195501 | 87 | 135 | 2.0 | 3.0 | 0.00 | 0.00 | 0.00 | 67 | 1016.7 |
| 20260503194957 | 91 | 215 | 6.0 | 7.0 | 0.00 | 0.00 | 0.00 | 64 | 1016.5 |
| 20260503194455 | 91 | 98 | 3.0 | 6.0 | 0.00 | 0.00 | 0.00 | 66 | 1016.7 |
| 20260503193949 | 92 | 136 | 4.0 | 8.0 | 0.00 | 0.00 | 0.00 | 65 | 1016.6 |
| 20260503193445 | 90 | 123 | 2.0 | 5.0 | 0.00 | 0.00 | 0.00 | 67 | 1016.9 |
| 20260503192941 | 89 | 146 | 1.0 | 5.0 | 0.00 | 0.00 | 0.00 | 67 | 1016.7 |
| 20260503192437 | 90 | 160 | 1.0 | 2.0 | 0.00 | 0.00 | 0.00 | 64 | 1016.8 |
| 20260503191933 | 91 | 138 | 2.0 | 2.0 | 0.00 | 0.00 | 0.00 | 65 | 1016.7 |
| 20260503191431 | 91 | 211 | 6.0 | 7.0 | 0.00 | 0.00 | 0.00 | 66 | 1016.7 |
| 20260503190927 | 90 | 151 | 3.0 | 5.0 | 0.00 | 0.00 | 0.00 | 66 | 1016.8 |
| 20260503190425 | 92 | 126 | 1.0 | 2.0 | 0.00 | 0.00 | 0.00 | 66 | 1016.7 |
| 20260503185921 | 92 | 182 | 2.0 | 5.0 | 0.00 | 0.00 | 0.00 | 66 | 1016.9 |
| 20260503185418 | 89 | 124 | 1.0 | 2.0 | 0.00 | 0.00 | 0.00 | 67 | 1017.0 |
| 20260503184917 | 91 | 152 | 3.0 | 6.0 | 0.00 | 0.00 | 0.00 | 67 | 1017.1 |
| 20260503184414 | 89 | 83 | 1.0 | 1.0 | 0.00 | 0.00 | 0.00 | 67 | 1017.3 |
| 20260503183910 | 91 | 116 | 3.0 | 5.0 | 0.00 | 0.00 | 0.00 | 66 | 1017.3 |
| 20260503183407 | 91 | 131 | 1.0 | 5.0 | 0.00 | 0.00 | 0.00 | 63 | 1017.2 |
| 20260503182904 | 92 | 122 | 1.0 | 2.0 | 0.00 | 0.00 | 0.00 | 64 | 1017.2 |
| 20260503182403 | 89 | 193 | 0.0 | 2.0 | 0.00 | 0.00 | 0.00 | 67 | 1017.3 |
| 20260503181859 | 89 | 193 | 1.0 | 2.0 | 0.00 | 0.00 | 0.00 | 67 | 1017.3 |